This demonstration page uses our WeatherBlox Daily Observations layout. Learn more.

Left ArrowRight Arrow

39.51506, -84.39828

Hourly Observations for June 25, 2020

Temp ( °F °C ) Dew Point ( °F °C ) Humidity (%) Winds ( mph kmh ) Pressure ( in mb ) Visibility ( mi km ) Precip ( " mm )
12:15 am 00:15 Clear 60 15.5 59 15.1 97 97 Calm 29.94 1014 10 16.0934 0 0
12:35 am 00:35 Clear 60 15.6 60 15.4 99 99 Calm 29.94 1014 10 16.0934 0 0
12:55 am 00:55 Clear 59 15.2 59 14.9 98 98 Calm 29.95 1014 10 16.0934 0 0
1:15 am 01:15 Clear 59 15 59 14.8 99 99 Calm 29.95 1014 10 16.0934 0 0
1:35 am 01:35 Clear 59 14.8 58 14.6 99 99 Calm 29.95 1014 10 16.0934 0 0
1:55 am 01:55 Clear 59 15 59 14.8 99 99 Calm 29.95 1014 10 16.0934 0 0
2:15 am 02:15 Clear 58 14.6 58 14.4 99 99 Calm 29.95 1014 10 16.0934 0 0
2:35 am 02:35 Clear 58 14.2 57 14.1 99 99 Calm 29.95 1014 7 11.26538 0 0
2:55 am 02:55 Clear 57 14 57 14 100 100 Calm 29.95 1014 7 11.26538 0 0
3:15 am 03:15 Clear 57 14 57 14 100 100 Calm 29.95 1014 10 16.0934 0 0
3:35 am 03:35 Clear 57 14 N/A N/A Calm 29.95 1014 10 16.0934 0 0
3:55 am 03:55 Partly Cloudy with Mist and Fog 57 14 N/A N/A Calm 29.95 1014 1.25 2.011675 0 0
4:15 am 04:15 Hazy 55 13 N/A N/A Calm 29.95 1014 7 11.26538 0 0
4:35 am 04:35 Mostly Cloudy with Mist and Fog 55 13 N/A N/A Calm 29.96 1015 1 1.60934 0 0
4:55 am 04:55 Mostly Cloudy with Mist and Fog 57 14 N/A N/A Calm 29.96 1015 1.75 2.816345 0 0
5:15 am 05:15 Mostly Cloudy with Fog 55 13 N/A N/A Calm 29.97 1015 0.25 0.402335 0 0
5:35 am 05:35 Mostly Cloudy with Fog 54 12 N/A N/A Calm 29.97 1015 0.25 0.402335 0 0
5:55 am 05:55 Mostly Cloudy with Mist and Fog 54 12 N/A N/A Calm 29.97 1015 1 1.60934 0 0
6:15 am 06:15 Mostly Cloudy with Mist and Fog 55 13 N/A N/A Calm 29.98 1015 0.75 1.207005 0 0
6:35 am 06:35 Mostly Cloudy with Fog 55 13 N/A N/A Calm 29.99 1016 0.5 0.80467 0 0
6:55 am 06:55 Sunny with Mist and Fog 57 14 N/A N/A Calm 29.99 1016 2 3.21868 0 0
7:15 am 07:15 Sunny 57 14 N/A N/A Calm 30 1016 7 11.26538 0 0
7:35 am 07:35 Sunny 61 16 N/A N/A Calm 29.99 1016 10 16.0934 0 0
7:55 am 07:55 Partly Cloudy 63 17 N/A N/A Calm 29.99 1016 10 16.0934 0 0
8:15 am 08:15 Cloudy 65 18.2 64 17.6 96 96 SSW 3 6 30 1016 10 16.0934 0 0
8:35 am 08:35 Sunny 66 18.7 63 17.3 92 92 SSW 3 6 30 1016 10 16.0934 0 0
8:55 am 08:55 Sunny 67 19.7 64 17.5 87 87 SSW 3 6 30 1016 10 16.0934 0 0
9:15 am 09:15 Sunny 70 21 63 17.1 79 79 SW 6 9 30 1016 10 16.0934 0 0
9:35 am 09:35 Partly Cloudy 72 22.2 62 16.7 71 71 SW 7 11 30 1016 10 16.0934 0 0
9:55 am 09:55 Partly Cloudy 73 22.7 60 15.8 65 65 WSW 9 15 30 1016 10 16.0934 0 0
10:15 am 10:15 Partly Cloudy 75 23.8 60 15.8 61 61 WSW 10 17 30.01 1016 10 16.0934 0 0
10:35 am 10:35 Sunny 76 24.4 61 16.1 60 60 WSW 9 15 30 1016 10 16.0934 0 0
10:55 am 10:55 Sunny 77 24.9 60 15.4 56 56 WSW 12 19 30.01 1016 10 16.0934 0 0
11:15 am 11:15 Sunny 77 25.2 59 14.9 53 53 W 8 13 30.01 1016 10 16.0934 0 0
11:35 am 11:35 Sunny 79 25.9 59 14.9 51 51 W 10 17 30.01 1016 10 16.0934 0 0
11:55 am 11:55 Sunny 79 26.1 58 14.5 49 49 WSW 9 15 30.01 1016 10 16.0934 0 0
12:15 pm 12:15 Sunny 79 26.3 58 14.4 48 48 WSW 12 19 30.01 1016 10 16.0934 0 0
12:35 pm 12:35 Partly Cloudy 80 26.6 57 14 46 46 WSW 14 22 30.01 1016 10 16.0934 0 0
12:55 pm 12:55 Partly Cloudy 80 26.8 58 14.6 47 47 W 10 17 30.01 1016 10 16.0934 0 0
1:15 pm 13:15 Partly Cloudy 80 26.5 58 14.7 48 48 W 12 19 30.01 1016 10 16.0934 0 0
1:35 pm 13:35 Partly Cloudy 81 27.2 58 14.5 46 46 W 8 13 30.01 1016 10 16.0934 0 0
1:55 pm 13:55 Partly Cloudy 82 27.5 59 14.9 46 46 WSW 10 17 30.01 1016 10 16.0934 0 0
2:15 pm 14:15 Partly Cloudy 82 27.5 58 14.4 45 45 SW 10 17 30.01 1016 10 16.0934 0 0
2:35 pm 14:35 Partly Cloudy 82 27.8 59 15.1 46 46 WSW 13 20 30 1016 10 16.0934 0 0
2:55 pm 14:55 Sunny 81 27.2 59 14.9 47 47 W 9 15 30 1016 10 16.0934 0 0
3:15 pm 15:15 Sunny 82 27.8 57 13.8 42 42 W 10 17 30 1016 10 16.0934 0 0
3:35 pm 15:35 Mostly Cloudy 79 26.3 57 13.7 46 46 W 9 15 29.99 1016 10 16.0934 0 0
3:55 pm 15:55 Partly Cloudy 83 28.1 59 14.8 44 44 W 13 20 29.99 1015 10 16.0934 0 0
4:15 pm 16:15 Partly Cloudy 83 28.4 60 15.5 45 45 WSW 13 20 29.99 1015 10 16.0934 0 0
4:35 pm 16:35 Mostly Cloudy 83 28.2 58 14.4 43 43 SW 13 20 29.98 1015 10 16.0934 0 0
4:55 pm 16:55 Mostly Cloudy 82 28 57 13.7 41 41 WSW 10 17 29.98 1015 10 16.0934 0 0
5:15 pm 17:15 Partly Cloudy 82 27.9 57 13.9 42 42 W 10 17 29.98 1015 10 16.0934 0 0
5:35 pm 17:35 Hazy 83 28.2 58 14.6 43 43 W 8 13 29.98 1015 5 8.0467 0 0
5:55 pm 17:55 Partly Cloudy 81 27.2 57 13.7 43 43 W 7 11 29.97 1015 10 16.0934 0 0
6:15 pm 18:15 Partly Cloudy 82 27.5 56 13.5 42 42 W 12 19 29.97 1015 10 16.0934 0 0
6:35 pm 18:35 Mostly Cloudy 82 28 57 13.8 42 42 W 12 19 29.97 1015 10 16.0934 0 0
6:55 pm 18:55 Mostly Cloudy 82 27.5 58 14.4 45 45 WSW 13 20 29.97 1015 10 16.0934 0 0
7:15 pm 19:15 Cloudy 81 27.4 58 14.5 45 45 WSW 12 19 29.98 1015 10 16.0934 0 0
7:35 pm 19:35 Partly Cloudy 81 27 59 15 48 48 WSW 10 17 29.98 1015 10 16.0934 0 0
7:55 pm 19:55 Sunny 80 26.4 59 15.1 50 50 WSW 12 19 29.98 1015 10 16.0934 0 0
8:15 pm 20:15 Sunny 78 25.8 60 15.6 53 53 WSW 5 7 29.98 1015 10 16.0934 0 0
8:35 pm 20:35 Sunny 74 23.3 62 16.8 67 67 Calm 29.99 1015 10 16.0934 0 0
8:55 pm 20:55 Sunny 73 22.7 63 17.1 71 71 Calm 29.99 1016 7 11.26538 0 0
9:15 pm 21:15 Clear 71 21.5 63 17.1 76 76 Calm 29.99 1016 10 16.0934 0 0
9:35 pm 21:35 Clear 68 19.8 64 17.8 88 88 Calm 30.01 1016 10 16.0934 0 0
9:55 pm 21:55 Clear 68 20 64 17.5 86 86 Calm 30 1016 10 16.0934 0 0
10:15 pm 22:15 Clear 67 19.5 64 17.7 89 89 Calm 30.02 1016 10 16.0934 0 0
10:35 pm 22:35 Clear 64 18 62 16.8 93 93 Calm 30.02 1017 10 16.0934 0 0
10:55 pm 22:55 Clear 65 18.2 62 16.9 92 92 Calm 30.03 1017 10 16.0934 0 0
11:15 pm 23:15 Clear 64 17.7 62 16.5 93 93 Calm 30.04 1017 10 16.0934 0 0
11:35 pm 23:35 Clear 63 17.3 62 16.6 96 96 Calm 30.04 1017 10 16.0934 0 0
11:55 pm 23:55 Clear 64 17.9 62 16.5 92 92 Calm 30.05 1018 10 16.0934 0 0

Powered by AerisWeather